Location: Aulus
(42.7909°N, 1.3399°E)
Time: 00:01:33
(UTC+00:00)

ISS - Pass Details

Date: 19 May 2025
Orbit: 415 x 416 km, 51.6° (Epoch: 18 June)

Event Time Altitude Azimuth Distance (km) Brightness Sun altitude
Rises 20:14:17 0° 299° (WNW) 2,360 2.1 -9.9°
Reaches altitude 10° 20:16:51 10° 319° (NW) 1,496 0.6 -10.2°
Maximum altitude 20:19:16 18° 5° (N) 1,094 -1.2 -10.6°
Drops below altitude 10° 20:21:41 10° 52° (NE) 1,493 -1.1 -10.9°
Enters shadow 20:23:56 - 70° (ENE) 2,242 -0.3 -11.2°
